Regional Weather Roundup
Issued by NWS

Home | Current Version | Previous Version | Text Only | Print | Product List | Glossary On
Versions: 1 2 3 4 5 6 7 8 9 10 11 12 13 14 15 16 17 18 19 20 21 22 23 24 25 26 27 28 29 30 31 32 33 34 35 36 37 38 39 40 41 42 43 44 45 46
000
ASUS45 KREV 260610
RWRNV
NEVADA REGIONAL WEATHER ROUNDUP
NATIONAL WEATHER SERVICE RENO NV
1100 PM PDT MON MAY 25 2015

NOTE: "FAIR" INDICATES FEW OR NO CLOUDS BELOW 12,000 FEET WITH NO
SIGNIFICANT WEATHER AND/OR OBSTRUCTIONS TO VISIBILITY.

NVZ001-003-004-260700-
WESTERN NEVADA

CITY           SKY/WX    TMP DP  RH WIND       PRES   REMARKS
RENO           PTCLDY    54  50  86 CALM      30.04R
6HR MIN TEMP:  54; 6HR MAX TEMP:  65; 6HR PCP:  0.06;

CARSON CITY    FAIR      54  46  76 CALM      30.04S
MINDEN         FAIR      52  43  71 S3        30.05
SLIDE MTN        N/A     39  27  60 W22         N/A
PYRAMID LAKE     N/A     61 N/A N/A N8          N/A
FALLON         CLOUDY    58  51  78 W5        30.00R
6HR MIN TEMP:  58; 6HR MAX TEMP:  66; 6HR PCP: TRACE;

LOVELOCK       MOCLDY    53  50  89 W3        29.99S
6HR MIN TEMP:  52; 6HR MAX TEMP:  61; 6HR PCP:  0.02;

HAWTHORNE      PTCLDY    61  46  59 CALM      30.03R
$$

NVZ002-CAZ072-073-260700-
NORTHERN AND CENTRAL SIERRA

CITY           SKY/WX    TMP DP  RH WIND       PRES   REMARKS
S. LAKE TAHOE  CLEAR     47  41  80 CALM      30.10R
6HR MIN TEMP:  47; 6HR MAX TEMP:  66;

TRUCKEE        CLEAR     43  41  93 S3        30.10S
SQUAW VLY 8000   N/A     45  34  65 W5          N/A
BLUE CANYON    PTCLDY    55  41  59 CALM      30.07S
MAMMOTH LAKES  FAIR      50  37  62 W8        30.14R
BRIDGEPORT     FAIR      47  38  71 CALM      30.10R
$$

NVZ030-031-036-260700-
NORTHERN NEVADA

CITY           SKY/WX    TMP DP  RH WIND       PRES   REMARKS
ELKO           PTCLDY    48  45  89 S3        30.03R
6HR MIN TEMP:  47; 6HR MAX TEMP:  60; 6HR PCP: TRACE;

WINNEMUCCA     CLOUDY    53  45  74 CALM      29.99S
6HR MIN TEMP:  52; 6HR MAX TEMP:  64;

WENDOVER       CLOUDY    55  48  76 SW7       30.00S
$$

NVZ035-037-260700-
CENTRAL NEVADA

CITY           SKY/WX    TMP DP  RH WIND       PRES   REMARKS
ELY            LGT RAIN  49  45  86 W3        30.11R
6HR MIN TEMP:  49; 6HR MAX TEMP:  66; 6HR PCP:  0.01;

EUREKA           N/A     49  45  86 E5        30.09F
6HR MIN TEMP:  49; 6HR MAX TEMP:  69; 6HR PCP:  0.26;

$$

NVZ013-014-260700-
SOUTH CENTRAL NEVADA

CITY           SKY/WX    TMP DP  RH WIND       PRES   REMARKS
TONOPAH        CLOUDY    59  42  53 S3        30.06R
6HR MIN TEMP:  59; 6HR MAX TEMP:  73; 6HR PCP: TRACE;

$$

NVZ017-020-022-260700-
SOUTHERN NEVADA

CITY           SKY/WX    TMP DP  RH WIND       PRES   REMARKS
LAS VEGAS      PTCLDY    80  42  25 SW12      29.80R
6HR MIN TEMP:  80; 6HR MAX TEMP:  87;

N. LAS VEGAS   CLEAR     77  43  29 N6        29.83R
6HR MIN TEMP:  77; 6HR MAX TEMP:  86;

NELLIS AFB     PTCLDY    81  43  25 S13       29.81S
6HR MIN TEMP:  81; 6HR MAX TEMP:  85;

HENDERSON      CLEAR     77  41  27 S13       29.88R
6HR MIN TEMP:  77; 6HR MAX TEMP:  86;

MERCURY        MOCLDY    77  34  21 S7        29.89R
6HR MIN TEMP:  76; 6HR MAX TEMP:  85;

$$



USA.gov is the U.S. government's official web portal to all federal, state and local government web resources and services.